SCP
1 1 1 1 2 2 2 2 1 1 1 1 1 1 1 1 1 1 1 1 1 1 1 1 1 1 1 0 0 0 0 0 0 0 0 0 0 0 0 0 0 0 0
1 1 1 1 1 2 2 2 1 1 1 1 1 1 1 1 1 1 1 1 1 1 1 1 1 1 1 1 1 0 0 0 0 0 0 0 0 0 0 0 0 0 0
1 1 1 1 1 2 2 2 2 2 2 1 1 1 1 1 1 1 1 1 1 1 1 1 1 1 1 1 0 0 0 0 0 0 0 0 0 0 0 0 0 0 0
1 1 1 1 1 1 2 2 2 2 2 2 2 1 1 1 1 1 1 1 1 1 1 1 1 1 1 1 0 0 0 0 0 0 0 0 0 0 0 0 0 0 0
1 1 1 1 1 1 1 2 2 2 2 2 2 2 2 1 1 1 2 1 1 1 1 1 1 1 1 1 0 0 0 0 0 0 0 0 0 0 0 0 0 0 0
1 1 1 1 1 1 1 2 2 2 2 2 2 2 2 2 2 2 2 1 1 1 1 1 1 1 1 1 1 0 0 0 0 0 0 0 0 0 0 0 0 0 0
1 1 1 1 1 1 1 2 2 2 2 2 2 2 2 2 2 2 1 1 1 1 1 1 1 1 1 1 1 0 0 0 0 0 0 0 0 0 0 0 0 0 0
1 1 1 1 1 1 1 2 2 2 2 2 2 2 2 2 2 1 1 1 1 1 1 1 1 1 1 1 0 0 0 0 0 0 0 0 0 0 0 0 0 0 0
1 1 1 1 1 1 2 2 2 3 2 2 2 2 2 2 1 1 1 1 1 1 1 1 1 1 1 0 0 0 0 0 0 0 0 0 0 0 0 0 0 0 0
1 1 1 1 1 1 2 2 2 3 2 2 2 2 2 1 1 1 1 1 1 1 1 1 1 0 0 0 0 0 0 0 0 0 0 0 0 0 0 0 0 0 0
1 1 1 1 1 1 1 2 2 2 2 2 2 2 1 1 1 1 1 1 1 1 1 0 0 0 0 0 0 0 0 0 0 0 0 0 0 0 0 0 0 0 0
1 1 1 1 1 1 1 2 2 2 2 2 2 2 1 1 1 1 1 1 1 1 1 0 0 0 0 0 0 0 0 0 0 0 0 0 0 0 0 0 0 0 0
1 1 1 1 1 1 2 2 2 2 2 1 1 1 1 1 1 1 1 1 1 1 1 0 0 0 0 0 0 0 0 0 0 0 0 0 0 0 0 0 0 0 0
1 1 1 1 1 2 2 2 2 1 1 1 1 1 1 1 1 1 1 1 0 1 0 0 0 0 0 0 0 0 0 0 0 0 0 0 0 0 0 0 0 0 0
1 1 1 1 2 2 2 2 2 1 1 1 1 1 1 1 1 1 0 0 0 0 0 0 0 0 0 0 0 0 0 0 0 0 0 0 0 0 0 0 0 0 0
1 1 1 2 2 2 2 2 2 1 1 1 1 1 1 1 1 1 0 0 0 0 0 0 0 0 0 0 0 0 0 0 0 0 0 0 0 0 0 0 0 0 0
1 1 2 2 2 2 2 2 2 1 1 1 1 1 1 1 1 1 0 0 0 0 0 0 0 0 0 0 0 0 0 0 0 0 0 0 0 0 0 0 0 0 0
1 2 2 2 2 2 2 2 1 1 1 1 1 1 1 1 1 1 1 0 0 0 0 0 0 0 0 0 0 0 0 0 0 0 0 0 0 0 0 0 0 0 0
2 2 2 2 2 2 2 1 1 1 1 1 1 1 1 1 1 1 1 0 0 0 0 0 0 0 0 0 0 0 0 0 0 0 0 0 0 0 0 0 0 0 0
2 2 2 2 2 2 2 1 1 1 1 1 1 1 1 1 1 1 1 0 0 0 0 0 0 0 0 0 0 0 0 0 0 0 0 0 0 0 0 0 0 0 0
2 2 2 2 2 2 2 2 1 1 1 1 1 1 1 1 1 1 1 0 0 0 0 0 0 0 0 0 0 0 0 0 0 0 0 0 0 0 0 0 0 0 0
2 2 2 2 2 2 2 2 2 1 1 1 1 1 1 1 1 1 1 0 0 0 0 0 0 0 0 0 0 0 0 0 0 0 0 0 0 0 0 0 0 0 0
2 2 2 2 2 2 2 2 2 2 1 1 1 1 1 1 1 1 1 0 0 0 0 0 0 0 0 0 0 0 0 0 0 0 0 0 0 0 0 0 0 0 0
2 2 2 2 2 2 2 2 2 2 1 1 1 1 1 1 1 1 0 0 0 0 0 0 0 0 0 0 0 0 0 0 0 0 0 0 0 0 0 0 0 0 0
2 2 2 2 2 1 1 2 2 2 1 1 1 1 1 1 1 0 0 0 0 0 0 0 0 0 0 0 0 0 0 0 0 0 0 0 0 0 0 0 0 0 0
1 2 2 2 1 1 1 2 2 2 1 1 1 1 1 0 0 0 0 0 0 0 0 0 0 0 0 0 0 0 0 0 0 0 0 0 0 0 0 0 0 0 0
Wind_Speed
8 7 8 9 9 7 7 6 4 4 3 3 2 2 1 1 1 1 2 2 1 1 1 1 1 1 1 2 2 2 2 1 1 1 1 1 1 1 1 0 1 1 2
8 8 9 9 9 8 7 6 5 4 3 3 2 2 2 2 2 1 2 2 1 1 1 1 1 1 1 1 2 2 2 2 1 1 1 0 1 1 0 1 1 1 1
8 8 8 9 9 8 7 6 5 5 4 3 2 2 2 1 1 2 2 2 1 2 1 1 1 1 1 1 1 2 2 2 2 1 1 1 1 1 1 0 1 1 1
9 9 7 7 9 9 8 7 6 5 4 3 3 3 2 2 1 1 2 2 1 1 1 1 1 1 1 2 1 2 2 2 3 2 1 0 0 0 1 1 0 1 1
9 8 8 7 7 8 8 7 6 5 4 4 3 2 2 1 1 1 2 2 2 1 1 1 1 1 1 2 2 2 2 2 2 2 2 1 0 0 1 1 1 0 0
8 8 7 8 6 7 7 8 7 5 5 4 3 2 1 1 1 1 1 1 1 1 1 1 1 1 1 1 1 1 1 2 2 3 2 2 1 1 1 1 1 1 1
7 7 8 7 6 6 6 7 7 6 5 4 3 2 1 1 1 1 1 1 1 1 1 1 1 1 1 1 1 1 1 1 2 2 2 2 2 1 0 1 1 1 1
7 7 7 7 6 6 5 6 7 6 5 4 3 2 2 1 1 1 1 1 1 1 1 1 1 1 1 1 0 0 1 1 1 2 2 2 2 2 1 0 1 1 1
6 6 6 6 6 6 5 6 6 5 5 4 4 3 2 2 1 0 1 0 0 1 2 1 1 1 1 1 1 0 1 1 1 2 2 2 2 2 1 1 1 1 1
6 6 6 6 6 6 6 5 5 5 4 4 4 4 4 3 2 1 1 1 0 1 0 1 1 1 0 1 1 0 1 1 1 1 1 2 2 2 2 1 1 1 1
5 5 6 6 6 6 6 6 5 5 5 4 3 3 3 2 2 1 1 1 1 1 1 1 1 1 0 1 1 1 1 1 1 1 1 1 2 2 2 2 1 1 1
6 6 6 6 5 5 5 6 5 5 4 4 4 3 2 2 1 1 1 1 1 1 1 1 1 1 0 1 1 1 1 1 1 1 1 2 2 2 2 2 2 1 1
5 6 6 6 5 5 4 5 4 3 4 4 4 3 3 2 1 1 1 1 1 1 1 1 1 1 1 1 1 1 1 1 1 1 1 2 2 2 2 2 2 2 2
5 5 5 5 5 4 4 3 3 3 3 3 3 3 2 2 2 1 1 1 1 1 1 1 0 0 0 1 2 1 1 1 1 1 1 1 1 2 3 2 2 2 2
5 5 5 4 4 4 3 3 3 2 2 2 3 3 2 2 2 2 1 1 1 1 1 1 0 0 0 1 2 2 1 1 1 1 1 1 1 0 2 2 2 2 2
4 5 5 5 4 3 3 2 3 2 2 2 2 2 2 1 2 2 2 1 1 1 1 1 0 1 1 1 1 2 2 2 2 2 1 1 0 0 1 2 3 3 2
4 5 5 5 4 3 2 2 2 2 2 1 2 2 2 2 2 2 2 1 1 1 1 1 1 1 0 1 1 2 2 2 1 1 1 2 2 2 2 2 3 3 2
3 4 4 5 4 3 2 2 2 2 2 2 2 2 2 2 1 1 1 1 1 1 1 1 1 1 1 1 2 3 2 2 2 1 1 1 1 2 3 3 2 2 2
3 4 4 5 4 3 2 2 2 2 2 2 1 1 1 1 1 1 1 1 1 2 2 2 2 2 2 2 2 2 2 2 2 1 1 1 1 2 3 2 2 3 2
4 4 4 4 4 3 2 2 2 1 1 1 1 1 1 1 2 1 1 1 2 3 2 2 2 2 2 2 3 2 2 2 2 1 1 1 2 2 2 2 2 3 3
4 4 4 4 4 3 2 1 2 2 1 1 1 1 1 1 2 1 1 2 3 2 2 2 2 2 2 3 3 3 2 2 2 1 1 1 1 2 3 3 3 4 5
3 4 3 3 3 3 2 2 2 1 1 1 1 1 1 2 2 2 2 2 3 3 3 3 3 2 3 3 4 4 4 3 2 2 1 1 2 2 3 3 4 6 5
3 3 3 3 2 2 2 2 2 1 1 1 1 1 1 2 2 2 3 3 3 3 3 3 3 2 2 2 3 4 4 4 3 2 2 3 4 4 4 5 5 4 2
2 2 3 2 2 1 1 2 2 1 1 1 1 2 2 2 2 2 3 3 3 3 3 2 2 1 2 2 1 2 2 3 3 3 4 5 6 6 5 4 3 2 2
2 1 1 2 1 1 1 2 2 2 2 2 2 2 3 3 2 1 1 1 1 1 2 2 1 1 1 1 1 0 1 1 0 2 3 3 3 3 2 2 2 1 1
1 1 1 1 1 2 1 2 2 2 2 2 2 2 2 2 2 1 1 1 2 3 3 2 2 1 2 3 2 1 1 1 1 2 3 3 3 2 2 1 2 2 2
Wind_Direction
156 155 150 144 143 145 145 147 152 150 156 163 170 170 164 150 130 123 110 114 88 59 59 11 26 3 6 3 10 0 338 328 327 351 346 282 220 176 142 160 145 146 149
155 155 154 152 150 150 154 151 151 149 164 164 171 173 175 171 165 131 114 120 116 76 81 55 355 4 4 19 5 0 338 329 360 325 317 326 346 355 139 100 95 97 126
157 153 165 163 159 158 157 157 157 155 172 168 174 179 163 157 152 144 135 127 130 118 75 61 19 358 31 32 6 3 341 327 329 344 355 0 9 325 344 57 113 95 101
167 161 168 169 165 162 158 153 153 157 163 159 178 181 171 177 179 157 140 141 130 118 124 95 64 16 13 17 13 20 345 332 329 326 332 60 54 332 324 306 334 134 128
167 165 165 166 164 161 159 153 149 155 159 165 170 178 192 186 153 119 116 125 120 111 89 83 64 36 31 23 8 15 7 347 336 326 326 330 300 267 236 293 310 311 190
159 160 158 150 154 150 153 153 150 155 164 168 165 168 181 163 118 109 129 144 135 122 94 94 71 53 33 26 2 352 6 347 334 327 327 322 318 299 290 284 283 286 261
159 155 152 144 141 146 149 141 149 157 165 170 171 171 169 155 140 161 136 112 108 99 81 70 72 49 13 2 356 351 339 322 314 312 308 304 301 309 303 272 279 292 278
156 158 150 143 147 148 151 137 150 157 161 162 157 154 164 151 112 108 128 143 142 107 102 83 78 56 15 354 336 290 270 293 294 310 313 305 311 323 316 293 303 310 310
154 153 143 144 142 139 139 137 138 149 155 155 153 152 142 134 140 144 129 84 58 109 110 142 134 98 42 338 318 298 314 319 320 315 322 319 320 323 338 337 307 285 302
153 150 141 143 140 138 133 130 132 135 143 152 163 149 143 144 145 154 142 115 74 61 190 174 147 115 302 278 310 327 307 301 300 298 323 325 331 331 324 309 318 304 260
146 140 140 142 141 142 141 137 138 144 146 142 137 126 135 140 145 158 147 134 185 203 227 191 159 159 252 334 347 276 311 332 326 314 317 336 344 332 326 326 314 308 292
148 141 137 139 141 143 140 137 138 144 149 138 136 136 130 135 152 180 175 161 215 219 208 194 170 204 208 284 292 284 310 285 300 315 324 330 322 321 318 319 318 317 296
144 140 138 137 137 135 131 134 139 145 145 143 140 139 148 158 171 197 183 182 205 220 205 194 204 231 233 258 277 268 292 287 288 296 308 314 325 325 312 312 325 315 306
146 137 132 132 133 129 131 143 146 142 135 137 142 147 161 173 186 194 187 196 204 207 182 198 213 189 357 344 328 319 294 303 285 255 242 275 309 313 304 306 312 306 297
137 131 132 133 139 139 146 151 148 140 134 151 160 162 162 177 183 184 195 205 222 207 168 162 202 272 229 8 356 320 310 326 309 298 244 180 141 327 310 317 317 309 303
149 144 147 140 141 144 153 153 152 147 148 173 179 160 157 174 188 184 188 179 211 215 163 170 133 334 345 17 13 334 322 326 330 331 325 243 127 296 274 313 312 304 286
155 156 149 144 141 143 154 166 157 148 152 194 188 167 175 187 192 198 182 184 195 204 221 190 167 171 291 337 332 313 299 306 300 297 317 322 346 3 336 297 273 276 278
133 141 140 136 138 145 156 157 158 160 167 202 195 177 179 190 198 193 189 190 191 217 223 215 214 192 224 242 287 289 264 271 275 279 266 276 329 331 327 307 303 276 258
107 127 134 141 144 150 149 159 166 181 191 211 216 209 194 197 195 192 180 191 210 227 232 211 204 206 220 228 241 257 258 257 272 275 319 295 290 303 305 292 296 300 284
112 124 130 134 136 136 138 168 174 189 215 238 254 273 234 209 225 205 199 220 231 235 235 223 210 206 209 219 227 227 251 250 249 230 208 278 280 281 282 285 293 286 288
111 113 119 126 128 133 138 184 189 197 212 233 241 240 240 220 223 198 201 230 239 238 241 229 214 205 197 200 210 202 237 264 267 255 240 257 252 259 260 269 278 279 290
108 110 118 123 127 140 155 198 203 196 198 219 231 230 234 251 227 211 223 235 231 231 234 226 225 214 198 197 204 206 221 247 275 287 297 292 261 261 264 268 281 289 292
127 125 125 123 131 152 177 210 202 185 183 207 229 239 251 265 257 230 236 239 231 232 236 222 219 206 180 176 194 205 225 235 238 268 305 307 281 263 255 254 267 278 282
111 131 143 150 155 168 189 193 185 158 200 228 230 230 228 238 243 244 239 236 233 230 237 236 228 199 165 148 163 201 226 241 242 262 278 280 270 259 258 254 249 241 252
111 122 153 157 172 202 210 190 179 177 201 223 228 244 242 235 235 254 286 269 293 263 246 263 278 214 152 105 85 140 193 254 329 301 269 260 248 234 228 218 217 229 248
127 153 213 209 213 232 216 181 178 193 205 222 235 243 248 241 228 221 276 284 226 198 189 195 206 218 171 163 151 150 201 271 300 289 271 271 274 273 268 254 238 219 234